Terminal Aerodrome Forecast
Issued by NWS

Home | Current Version | Previous Version | Text Only | Print | Product List | Glossary On
Versions: 1 2 3 4 5 6 7 8 9 10 11 12 13 14 15 16 17
086
FTUS43 KAPX 140107 AAA
TAFPLN
TAF AMD
KPLN 140107Z 1401/1424 01008KT P6SM VCSH OVC018
     FM140200 02009KT P6SM SCT200
     FM140900 35005KT P6SM SCT150
     FM141100 34004KT P6SM BKN025
     FM141900 29006KT P6SM -SHSN BKN025=

USA.gov is the U.S. government's official web portal to all federal, state and local government web resources and services.